Regional Weather Roundup
Issued by NWS

Home | Current Version | Previous Version | Text Only | Print | Product List | Glossary On
Versions: 1 2 3 4 5 6 7 8 9 10 11 12 13 14 15 16 17 18 19 20 21 22 23 24 25 26 27 28 29 30 31 32 33 34 35 36 37 38 39 40 41 42 43 44 45 46 47 48 49 50
000
ASUS45 KABQ 301110
RWRNM
NEW MEXICO REGIONAL WEATHER ROUNDUP
NATIONAL WEATHER SERVICE ALBUQUERQUE NM
500 AM MDT SAT MAY 30 2015

NOTE: "FAIR" MEANS FEW OR NO CLOUDS BELOW 12,000 FEET AGL WITH NO
       SIGNIFICANT WEATHER OR OBSTRUCTIONS TO VISION.

      THIS PRODUCT IS RELEASED AS TWO VERSIONS.  ONE VERSION NEAR
      THE TOP OF THE HOUR CONTAINING PRELIMINARY DATA FROM ALBUQUERQUE
      AND OTHER STATIONS.  A FINAL VERSION WITH ADDITIONAL DATA IS
      ISSUED ABOUT 10 MINUTES AFTER THE HOUR.

NMZ501-503-504-510>518-301200-
NORTHWEST PLATEAU/NORTHCENTRAL MOUNTAINS

CITY           SKY/WX    TMP DP  RH WIND       PRES   REMARKS
FARMINGTON     CLEAR     46  30  53 CALM      30.22R
LOS ALAMOS     CLEAR     51  42  71 SW12G21   30.35R
SANTA FE       CLEAR     52  42  69 S10       30.30R
TAOS           CLEAR     43  28  56 N6        30.35R
ANGEL FIRE     FAIR      37  35  92 CALM      30.41R

$$
NMZ402-403-502-505>509-301200-
WESTCENTRAL MOUNTAINS/SOUTHWEST MOUNTAINS

CITY           SKY/WX    TMP DP  RH WIND       PRES   REMARKS
GALLUP         CLEAR     42  28  57 E10       30.27S
GRANTS         PTCLDY    42  32  67 S3        30.30S
SILVER CITY      N/A     57  25  28 W7        30.15S

$$
NMZ407-409-411-412-301200-
SOUTHERN DESERTS

CITY           SKY/WX    TMP DP  RH WIND       PRES   REMARKS
LORDSBURG      FAIR      57  19  23 SW3       30.07S
DEMING         CLEAR     75  30  19 NE17G26   30.06R
LAS CRUCES     CLEAR     65  31  28 N7        30.10R
HOLLOMAN AFB   PTCLDY    61  44  53 SW3       30.07R
ALAMOGORDO     PTCLDY    57  32  38 S6        30.09R
T OR C         CLEAR     64  46  52 N20G26    30.15R

$$
NMZ519>523-301200-
CENTRAL VALLEYS/CENTRAL HIGHLANDS

CITY           SKY/WX    TMP DP  RH WIND       PRES   REMARKS
ALBUQUERQUE    PTCLDY    59  45  59 E18G30    30.25R
DOUBLE EAGLE   CLEAR     53  44  70 SE8       30.28R
MORIARTY ARPT  FAIR      50  44  78 S3        30.34S
CLINES CORNERS CLEAR     47  43  86 E10       30.34R
BELEN          FAIR      56  44  63 NW13      30.23R
SOCORRO        FAIR      60  45  56 NW10      30.23R

$$
NMZ524>526-539-540-301200-
SOUTHCENTRAL MOUNTAINS

CITY           SKY/WX    TMP DP  RH WIND       PRES   REMARKS
RUIDOSO        PTCLDY    52  45  76 W5        30.32S

$$
NMZ527>531-301200-
NORTHEAST HIGHLANDS/NORTHEAST PLAINS

CITY           SKY/WX    TMP DP  RH WIND       PRES   REMARKS
LAS VEGAS      MOCLDY    46  42  86 NE5       30.36S
RATON          MOCLDY    46  43  89 E3        30.33R
CLAYTON        MOCLDY    52  49  89 N12       30.28S

$$
NMZ532>537-301200-
EASTCENTRAL PLAINS

CITY           SKY/WX    TMP DP  RH WIND       PRES   REMARKS
TUCUMCARI      CLOUDY    54  50  86 CALM      30.26R
CANNON AFB     CLOUDY    56  53  91 NE12      30.24R
CLOVIS AIRPORT CLOUDY    54  52  94 N9        30.24R

$$
NMZ028-029-538-301200-
SOUTHEAST PLAINS

CITY           SKY/WX    TMP DP  RH WIND       PRES   REMARKS
ROSWELL        CLOUDY    59  54  83 N15       30.18R
ARTESIA        CLOUDY    61  59  94 NW10      30.18R
CARLSBAD       CLOUDY    59  55  87 SW3       30.17R
HOBBS          LGT RAIN  57  57 100 NE13      30.21F


$$


USA.gov is the U.S. government's official web portal to all federal, state and local government web resources and services.